シンガー・ブルースター彗星

105P/Singer Brewster (2025)

English version
Home page
Updated on May 13, 2024

---------------------------------------------------------------------

・ プロフィール

・ 写真集

・ 軌道要素

Epoch 2024 Mar. 31.0 TT = JDT 2460400.5
T 2025 Jan. 22.84493 TT                                 Rudenko
q   2.0519140            (2000.0)            P               Q
n   0.15238424     Peri.   46.36311     -0.52060096     +0.85311458
a   3.4714375      Node   192.39743     -0.82203813     -0.51165806
e   0.4089152      Incl.    9.16821     -0.23071183     -0.10198799
P   6.47
>From 469 observations 2018 Jan. 1-2024 Feb. 13, mean residual 0".7.
     Nongravitational parameters A1 = -0.63, A2 = +0.1443.

・ 光度変化

        m1 = 8.5 + 5 logΔ + 20.0 log r

---------------------------------------------------------------------

軌道要素はM.P.E.C. 2024-D33に掲載されたものです。
光度グラフはComet for Windowsで作成したものです。

---------------------------------------------------------------------

Copyright(C) Seiichi Yoshida (comet@aerith.net). All rights reserved.